| time (UTC) | temp C | wind direction | speed KPH | gust KPH | rain 1hr cm | rain 24hr cm | rain mn cm | humidity % | barometer mb |
| 20260505093049 | 14 | 171 | 4.8 | 11.3 | 0.00 | 0.00 | 0.00 | 65 | 1007.2 |
| 20260505091553 | 14 | 172 | 4.8 | 11.3 | 0.00 | 0.00 | 0.00 | 64 | 1007.2 |
| 20260505090045 | 14 | 173 | 6.4 | 11.3 | 0.00 | 0.00 | 0.00 | 64 | 1007.0 |
| 20260505084553 | 15 | 173 | 3.2 | 12.9 | 0.00 | 0.00 | 0.00 | 63 | 1007.0 |
| 20260505083054 | 15 | 173 | 3.2 | 14.5 | 0.00 | 0.00 | 0.00 | 62 | 1007.0 |
| 20260505081539 | 15 | 167 | 8.0 | 16.1 | 0.00 | 0.00 | 0.00 | 61 | 1007.1 |
| 20260505080038 | 15 | 174 | 4.8 | 16.1 | 0.00 | 0.00 | 0.00 | 60 | 1007.1 |
| 20260505074536 | 15 | 164 | 6.4 | 16.1 | 0.00 | 0.00 | 0.00 | 60 | 1007.2 |
| 20260505073035 | 15 | 188 | 6.4 | 22.5 | 0.00 | 0.00 | 0.00 | 59 | 1007.1 |
| 20260505071533 | 16 | 180 | 4.8 | 14.5 | 0.00 | 0.00 | 0.00 | 58 | 1007.2 |
| 20260505070032 | 16 | 177 | 4.8 | 16.1 | 0.00 | 0.00 | 0.00 | 57 | 1007.4 |
| 20260505064537 | 16 | 190 | 8.0 | 16.1 | 0.00 | 0.00 | 0.00 | 55 | 1007.4 |
| 20260505063031 | 16 | 157 | 9.7 | 19.3 | 0.00 | 0.00 | 0.00 | 55 | 1007.4 |
| 20260505061529 | 16 | 172 | 9.7 | 16.1 | 0.00 | 0.00 | 0.00 | 55 | 1007.3 |
| 20260505054543 | 16 | 173 | 8.0 | 14.5 | 0.00 | 0.00 | 0.00 | 57 | 1007.6 |
| 20260505053027 | 15 | 191 | 3.2 | 8.0 | 0.00 | 0.00 | 0.00 | 58 | 1007.7 |
| 20260505051526 | 15 | 160 | 6.4 | 11.3 | 0.00 | 0.00 | 0.00 | 56 | 1007.6 |
| 20260505041518 | 16 | 171 | 8.0 | 14.5 | 0.00 | 0.00 | 0.00 | 55 | 1007.3 |
| 20260505040016 | 16 | 170 | 4.8 | 11.3 | 0.00 | 0.00 | 0.00 | 55 | 1007.5 |
| 20260505034524 | 16 | 163 | 6.4 | 9.7 | 0.00 | 0.00 | 0.00 | 54 | 1007.5 |
| 20260505033015 | 16 | 167 | 4.8 | 9.7 | 0.00 | 0.00 | 0.00 | 53 | 1007.5 |
| 20260505031513 | 16 | 167 | 4.8 | 14.5 | 0.00 | 0.00 | 0.00 | 52 | 1007.5 |
| 20260505030033 | 17 | 167 | 3.2 | 11.3 | 0.00 | 0.00 | 0.00 | 51 | 1007.5 |
| 20260505024516 | 17 | 167 | 6.4 | 12.9 | 0.00 | 0.00 | 0.00 | 50 | 1007.7 |
| 20260505023012 | 17 | 177 | 6.4 | 14.5 | 0.00 | 0.00 | 0.00 | 48 | 1007.8 |
| 20260505021511 | 17 | 163 | 8.0 | 17.7 | 0.00 | 0.00 | 0.00 | 48 | 1008.0 |
| 20260505020011 | 17 | 173 | 4.8 | 11.3 | 0.00 | 0.00 | 0.00 | 47 | 1007.9 |
| 20260505014518 | 17 | 179 | 3.2 | 9.7 | 0.00 | 0.00 | 0.00 | 48 | 1007.8 |
| 20260505013017 | 17 | 173 | 0.0 | 8.0 | 0.00 | 0.00 | 0.00 | 48 | 1007.6 |
| 20260505011508 | 18 | 190 | 1.6 | 8.0 | 0.00 | 0.00 | 0.00 | 47 | 1007.6 |
| 20260505010008 | 18 | 191 | 1.6 | 8.0 | 0.00 | 0.00 | 0.00 | 46 | 1007.5 |
| 20260505004522 | 18 | 191 | 1.6 | 11.3 | 0.00 | 0.00 | 0.00 | 44 | 1007.3 |
| 20260505003007 | 19 | 150 | 4.8 | 16.1 | 0.00 | 0.00 | 0.00 | 43 | 1007.3 |
| 20260505001506 | 20 | 160 | 6.4 | 12.9 | 0.00 | 0.00 | 0.00 | 41 | 1007.0 |
| 20260505000007 | 20 | 161 | 4.8 | 17.7 | 0.00 | 0.00 | 0.00 | 41 | 1006.9 |
| 20260504234506 | 20 | 165 | 6.4 | 12.9 | 0.00 | 0.00 | 0.00 | 40 | 1006.8 |
| 20260504233004 | 21 | 167 | 9.7 | 17.7 | 0.00 | 0.00 | 0.00 | 39 | 1006.6 |
| 20260504231503 | 21 | 148 | 8.0 | 29.0 | 0.00 | 0.00 | 0.00 | 37 | 1006.6 |
| 20260504230003 | 21 | 160 | 8.0 | 27.4 | 0.00 | 0.00 | 0.00 | 37 | 1006.5 |
| 20260504223001 | 22 | 184 | 8.0 | 17.7 | 0.00 | 0.00 | 0.00 | 36 | 1006.5 |
| 20260504221500 | 22 | 192 | 11.3 | 27.4 | 0.00 | 0.00 | 0.00 | 36 | 1006.6 |
| 20260504220100 | 22 | 148 | 14.5 | 33.8 | 0.00 | 0.00 | 0.00 | 35 | 1006.6 |
| 20260504214603 | 22 | 186 | 14.5 | 25.7 | 0.00 | 0.00 | 0.00 | 33 | 1006.4 |
| 20260504213101 | 22 | 163 | 8.0 | 24.1 | 0.00 | 0.00 | 0.00 | 34 | 1006.4 |
| 20260504211556 | 22 | 175 | 14.5 | 27.4 | 0.00 | 0.00 | 0.00 | 35 | 1006.5 |
| 20260504210052 | 22 | 160 | 8.0 | 27.4 | 0.00 | 0.00 | 0.00 | 35 | 1006.7 |
| 20260504204549 | 21 | 169 | 8.0 | 29.0 | 0.00 | 0.00 | 0.00 | 35 | 1007.0 |
| 20260504203047 | 21 | 149 | 16.1 | 30.6 | 0.00 | 0.00 | 0.00 | 36 | 1007.3 |
| 20260504201545 | 22 | 153 | 9.7 | 32.2 | 0.00 | 0.00 | 0.00 | 37 | 1007.5 |
| 20260504200045 | 21 | 259 | 12.9 | 25.7 | 0.00 | 0.00 | 0.00 | 37 | 1007.6 |
| 20260504194549 | 22 | 142 | 20.9 | 38.6 | 0.00 | 0.00 | 0.00 | 35 | 1007.9 |
| 20260504193045 | 21 | 166 | 14.5 | 33.8 | 0.00 | 0.00 | 0.00 | 36 | 1007.9 |
| 20260504191603 | 21 | 228 | 12.9 | 32.2 | 0.00 | 0.00 | 0.00 | 37 | 1008.1 |
| 20260504190038 | 21 | 186 | 12.9 | 22.5 | 0.00 | 0.00 | 0.00 | 36 | 1008.2 |
| 20260504184542 | 21 | 209 | 6.4 | 27.4 | 0.00 | 0.00 | 0.00 | 36 | 1008.4 |
| 20260504183031 | 21 | 189 | 16.1 | 33.8 | 0.00 | 0.00 | 0.00 | 38 | 1008.6 |
| 20260504181528 | 20 | 148 | 16.1 | 37.0 | 0.00 | 0.00 | 0.00 | 40 | 1008.8 |
| 20260504180032 | 21 | 171 | 9.7 | 33.8 | 0.00 | 0.00 | 0.00 | 39 | 1009.0 |
| 20260504174523 | 20 | 157 | 16.1 | 33.8 | 0.00 | 0.00 | 0.00 | 37 | 1009.1 |
| 20260504173019 | 20 | 194 | 11.3 | 38.6 | 0.00 | 0.00 | 0.00 | 38 | 1009.3 |
| 20260504171520 | 19 | 139 | 17.7 | 40.2 | 0.00 | 0.00 | 0.00 | 39 | 1009.3 |